Date String (YYYY-MM-DD hh:mm:ss) UTC,Instrument flags,absolute air pressure of the measurement (hPa),sample flow rate (lpm),inlet stack bypass flow (lpm),air temperature of the measurement (°C),ambient temperature measured by the external sensor (°C),aerosol sample conditioner tube jacket temperature (°C),OPC LED temperature (°C),internal box temperature (°C),relative humidity of the measurement (%),span deviation,mass concentration of particles derived from Lorenz-Mie calculation of OPC scattering (μg/m³),mass concentration of particles derived from Lorenz-Mie calculation of OPC scattering (μg/m³),mass concentration of particles derived from Lorenz-Mie calculation of OPC scattering (μg/m³)
DateTimeUTC,F1_M11,P_M11,Q1_M11,Q2_M11,T1_M11,T2_M11,T3_M11,T4_M11,T5_M11,U1_M11,ZSPAN_M11,X2_M11,X0_M11,X1_M11
2023-12-07 19:00:00,SystemResetWarning,0817.4,4.99,000.00,023.7,022.7,000.0,032.0,024.9,11.1,0000.0,0004.43,0060.34,0001.06
2023-12-07 19:01:00,SystemResetWarning,0817.6,4.99,000.00,023.7,022.7,000.0,032.0,025.0,11.5,0000.0,0004.34,0057.17,0001.05
2023-12-07 19:02:00,SystemResetWarning,0817.7,5.00,000.00,023.7,022.7,000.0,032.0,025.0,11.1,0000.0,0004.06,0052.80,0001.02
2023-12-07 19:03:00,SystemResetWarning,0817.6,5.01,000.00,023.7,022.8,000.0,032.0,025.0,11.5,0000.0,0003.47,0044.44,0000.94
2023-12-07 19:04:00,SystemResetWarning,0817.3,5.01,000.00,023.7,022.8,000.0,032.0,025.0,11.1,0000.0,0003.13,0037.44,0000.90
2023-12-07 19:05:00,SystemResetWarning,0817.2,5.00,000.00,023.7,022.8,000.0,032.0,025.0,10.4,0000.0,0002.89,0036.93,0000.88
2023-12-07 19:06:00,SystemResetWarning,0817.4,5.00,000.00,023.7,022.8,000.0,032.0,025.0,10.0,0000.0,0002.52,0035.37,0000.85
2023-12-07 19:07:00,SystemResetWarning,0817.3,5.00,000.00,023.7,022.8,000.0,032.0,025.0,10.3,0000.0,0002.38,0035.67,0000.83
2023-12-07 19:08:00,SystemResetWarning,0817.5,4.98,000.00,023.7,022.8,000.0,032.0,025.0,10.5,0000.0,0002.19,0027.78,0000.81
2023-12-07 19:09:00,SystemResetWarning,0817.7,5.00,000.00,023.7,022.8,000.0,032.0,025.0,10.5,0000.0,0001.95,0020.33,0000.76
2023-12-07 19:10:00,SystemResetWarning,0817.8,5.01,000.00,023.7,022.8,000.0,032.0,025.0,10.8,0000.0,0001.79,0017.14,0000.73
2023-12-07 19:11:00,SystemResetWarning,0817.8,5.00,000.00,023.7,022.8,000.0,032.0,025.1,11.0,0000.0,0001.56,0011.65,0000.72
2023-12-07 19:12:00,SystemResetWarning,0817.3,5.00,000.00,023.8,022.9,000.0,032.0,025.1,10.4,0000.0,0001.40,0010.52,0000.71
2023-12-07 19:13:00,SystemResetWarning,0817.5,5.02,000.00,023.8,022.9,000.0,032.0,025.1,10.0,0000.0,0001.33,0009.74,0000.70
2023-12-07 19:14:00,SystemResetWarning,0817.7,5.00,000.00,023.8,022.9,000.0,032.0,025.1,10.0,0000.0,0001.36,0009.95,0000.70
2023-12-07 19:15:00,SystemResetWarning,0817.9,4.99,000.00,023.8,022.9,000.0,032.0,025.1,9.7,0000.0,0001.49,0010.47,0000.70
2023-12-07 19:16:00,SystemResetWarning,0818.0,5.00,000.00,023.8,022.9,000.0,032.0,025.1,9.8,0000.0,0001.54,0010.37,0000.70
2023-12-07 19:17:00,SystemResetWarning,0818.0,5.00,000.00,023.8,022.9,000.0,032.0,025.1,9.8,0000.0,0001.57,0009.29,0000.69
2023-12-07 19:18:00,SystemResetWarning,0818.0,5.00,000.00,023.8,022.9,000.0,032.1,025.2,10.2,0000.0,0001.56,0008.08,0000.69
2023-12-07 19:19:00,SystemResetWarning,0817.9,5.00,000.00,023.8,022.9,000.0,032.1,025.2,10.4,0000.0,0001.51,0007.63,0000.69
2023-12-07 19:20:00,SystemResetWarning,0817.6,5.01,000.00,023.8,023.0,000.0,032.1,025.2,10.6,0000.0,0001.45,0006.73,0000.70
2023-12-07 19:21:00,SystemResetWarning,0817.7,5.00,000.00,023.8,023.0,000.0,032.1,025.2,9.8,0000.0,0001.37,0005.46,0000.70
2023-12-07 19:22:00,SystemResetWarning,0817.8,5.00,000.00,023.8,023.0,000.0,032.1,025.2,9.6,0000.0,0001.33,0005.39,0000.69
2023-12-07 19:23:00,SystemResetWarning,0817.6,5.00,000.00,023.9,023.0,000.0,032.1,025.2,9.6,0000.0,0001.40,0005.59,0000.69
2023-12-07 19:24:00,SystemResetWarning,0817.6,5.00,000.00,023.9,023.0,000.0,032.1,025.2,10.6,0000.0,0001.41,0005.77,0000.68
2023-12-07 19:25:00,SystemResetWarning,0817.8,5.00,000.00,023.9,023.0,000.0,032.1,025.2,10.6,0000.0,0001.38,0006.51,0000.67
2023-12-07 19:26:00,SystemResetWarning,0817.8,4.99,000.00,023.9,023.0,000.0,032.1,025.2,10.4,0000.0,0001.27,0005.67,0000.67
2023-12-07 19:27:00,SystemResetWarning,0818.0,5.00,000.00,023.9,023.1,000.0,032.1,025.3,10.4,0000.0,0001.22,0005.47,0000.67
2023-12-07 19:28:00,SystemResetWarning,0817.9,5.00,000.00,023.9,023.1,000.0,032.2,025.3,10.1,0000.0,0001.17,0005.32,0000.67
2023-12-07 19:29:00,SystemResetWarning,0817.8,5.00,000.00,023.9,023.1,000.0,032.2,025.3,10.4,0000.0,0001.11,0005.04,0000.66
2023-12-07 19:30:00,SystemResetWarning,0817.7,5.00,000.00,023.9,023.1,000.0,032.2,025.3,10.6,0000.0,0001.10,0003.81,0000.66
2023-12-07 19:31:00,SystemResetWarning,0817.7,5.00,000.00,023.9,023.1,000.0,032.2,025.3,9.9,0000.0,0001.07,0003.37,0000.65
2023-12-07 19:32:00,SystemResetWarning,0817.9,5.00,000.00,024.0,023.1,000.0,032.2,025.3,9.5,0000.0,0001.07,0003.49,0000.64
2023-12-07 19:33:00,SystemResetWarning,0817.9,5.01,000.00,024.0,023.1,000.0,032.2,025.3,9.7,0000.0,0001.06,0003.45,0000.64
2023-12-07 19:34:00,SystemResetWarning,0817.9,5.00,000.00,024.0,023.1,000.0,032.2,025.3,10.0,0000.0,0001.01,0003.18,0000.64
2023-12-07 19:35:00,SystemResetWarning,0818.0,5.01,000.00,024.0,023.1,000.0,032.2,025.4,9.9,0000.0,0000.95,0002.97,0000.64
2023-12-07 19:36:00,SystemResetWarning,0817.7,5.00,000.00,024.0,023.1,000.0,032.2,025.4,10.1,0000.0,0000.94,0002.17,0000.65
2023-12-07 19:37:00,SystemResetWarning,0817.7,5.00,000.00,024.0,023.2,000.0,032.2,025.4,10.2,0000.0,0000.91,0001.42,0000.64
2023-12-07 19:38:00,SystemResetWarning,0817.7,5.00,000.00,024.0,023.2,000.0,032.2,025.4,10.0,0000.0,0000.92,0001.49,0000.64
2023-12-07 19:39:00,SystemResetWarning,0817.7,5.00,000.00,024.0,023.2,000.0,032.3,025.4,10.4,0000.0,0001.00,0001.79,0000.64
2023-12-07 19:40:00,SystemResetWarning,0817.8,5.00,000.00,024.0,023.2,000.0,032.3,025.4,10.3,0000.0,0001.02,0001.86,0000.65
2023-12-07 19:41:00,SystemResetWarning,0818.0,5.00,000.00,024.0,023.2,000.0,032.3,025.4,10.1,0000.0,0001.00,0001.90,0000.65
2023-12-07 19:42:00,SystemResetWarning,0817.9,5.00,000.00,024.1,023.2,000.0,032.3,025.5,10.0,0000.0,0001.00,0001.96,0000.65
2023-12-07 19:43:00,SystemResetWarning,0817.9,5.01,000.00,024.1,023.2,000.0,032.3,025.5,10.0,0000.0,0001.04,0002.21,0000.66
2023-12-07 19:44:00,SystemResetWarning,0818.0,5.00,000.00,024.1,023.3,000.0,032.3,025.5,9.4,0000.0,0001.05,0002.25,0000.66
2023-12-07 19:45:00,SystemResetWarning,0818.0,5.00,000.00,024.1,023.3,000.0,032.3,025.5,9.9,0000.0,0001.03,0002.27,0000.66
2023-12-07 19:46:00,SystemResetWarning,0817.9,5.00,000.00,024.1,023.3,000.0,032.3,025.5,10.1,0000.0,0001.04,0002.31,0000.64
2023-12-07 19:47:00,SystemResetWarning,0817.8,5.00,000.00,024.1,023.3,000.0,032.3,025.5,10.6,0000.0,0001.06,0002.39,0000.64
2023-12-07 19:48:00,SystemResetWarning,0817.6,5.00,000.00,024.1,023.4,000.0,032.4,025.5,10.3,0000.0,0001.06,0002.40,0000.65
2023-12-07 19:49:00,SystemResetWarning,0817.5,5.00,000.00,024.2,023.4,000.0,032.4,025.5,10.2,0000.0,0001.08,0002.57,0000.65
2023-12-07 19:50:00,SystemResetWarning,0817.3,5.00,000.00,024.2,023.4,000.0,032.4,025.5,9.8,0000.0,0001.02,0002.31,0000.65
2023-12-07 19:51:00,SystemResetWarning,0817.4,4.99,000.00,024.2,023.4,000.0,032.4,025.5,9.7,0000.0,0001.03,0002.33,0000.65
2023-12-07 19:52:00,SystemResetWarning,0817.6,4.99,000.00,024.2,023.4,000.0,032.4,025.6,9.8,0000.0,0001.01,0002.20,0000.65
2023-12-07 19:53:00,SystemResetWarning,0817.7,5.00,000.00,024.2,023.4,000.0,032.4,025.6,9.9,0000.0,0001.00,0002.12,0000.65
2023-12-07 19:54:00,SystemResetWarning,0817.5,5.00,000.00,024.2,023.4,000.0,032.4,025.6,10.0,0000.0,0000.93,0001.75,0000.64
2023-12-07 19:55:00,SystemResetWarning,0817.4,5.01,000.00,024.2,023.4,000.0,032.4,025.6,10.1,0000.0,0000.90,0001.65,0000.64
2023-12-07 19:56:00,SystemResetWarning,0817.5,5.01,000.00,024.2,023.4,000.0,032.4,025.6,10.1,0000.0,0000.90,0001.57,0000.65
2023-12-07 19:57:00,SystemResetWarning,0817.7,4.99,000.00,024.3,023.4,000.0,032.5,025.6,9.2,0000.0,0000.90,0001.57,0000.65
2023-12-07 19:58:00,SystemResetWarning,0817.7,5.01,000.00,024.3,023.5,000.0,032.5,025.6,9.3,0000.0,0000.86,0001.45,0000.65
2023-12-07 19:59:00,SystemResetWarning,0817.7,5.00,000.00,024.3,023.5,000.0,032.5,025.7,9.8,0000.0,0000.85,0001.43,0000.65
